EHI
1 0 0 0 0 0 1 0 0 0 0 0 0 0 0 0 0 0 1 7 14 18 18 17 15 13 10 7 6 7 6 2 0 0 0 0 0 0 0 0 0 0 0
2 1 0 0 0 0 1 0 0 0 0 0 0 0 0 0 0 0 1 4 10 17 19 18 17 16 13 10 8 8 6 3 1 0 0 0 0 0 0 0 0 0 0
2 1 0 0 0 0 0 0 0 0 0 0 0 0 0 0 0 0 0 1 4 11 17 18 18 17 15 13 11 10 8 5 2 1 0 0 0 0 0 0 0 0 0
1 0 0 0 0 0 0 0 0 0 0 0 0 0 0 0 1 1 0 0 1 5 9 13 16 16 16 14 13 12 10 7 5 3 1 0 0 0 0 0 0 0 0
1 1 1 1 1 0 0 0 0 0 0 0 0 0 0 0 1 1 1 1 1 1 3 6 11 13 14 15 14 12 10 9 7 5 2 1 0 0 0 0 0 0 0
2 2 2 2 1 1 0 0 0 0 0 0 0 0 0 0 0 0 1 1 1 0 0 2 4 7 10 14 15 14 12 10 8 6 5 3 1 0 0 0 0 0 0
2 2 1 1 1 1 1 1 0 0 0 0 0 0 0 0 0 0 0 1 1 0 0 0 1 2 5 9 12 15 15 12 9 7 6 5 3 1 1 1 0 0 0
2 2 1 0 0 0 1 1 1 0 0 0 0 0 0 0 0 0 0 0 0 0 0 0 1 1 3 5 7 12 14 13 11 9 6 6 5 3 2 2 1 0 0
2 2 1 0 0 0 0 1 1 1 1 0 0 0 0 0 0 0 0 0 0 0 0 0 1 2 3 3 4 7 10 12 12 10 7 6 5 4 3 2 1 0 0
1 1 0 0 1 0 0 1 2 1 1 1 0 0 0 0 0 0 0 0 0 0 0 0 1 1 2 3 3 5 7 10 12 11 9 7 6 5 4 2 1 0 0
1 1 0 0 0 0 0 1 2 2 1 1 0 0 0 0 0 0 0 0 0 0 0 0 0 0 1 1 2 4 6 7 8 9 9 8 7 6 4 3 2 1 0
0 0 0 0 0 0 1 2 3 3 2 1 1 1 0 0 0 0 0 0 0 0 0 0 0 0 0 0 1 2 4 3 3 4 6 7 6 5 4 4 4 3 2
0 0 0 0 0 0 1 2 3 4 4 3 3 3 2 1 0 0 0 0 0 0 0 0 0 0 0 0 0 0 1 1 0 1 2 3 3 3 3 3 4 4 4
1 0 0 1 1 0 1 3 4 5 5 5 5 6 5 3 1 0 0 0 0 0 0 0 0 0 0 0 0 0 0 0 0 0 0 0 0 1 1 1 1 2 3
2 1 1 2 2 1 1 3 5 6 6 6 7 7 6 5 3 1 0 0 0 0 0 0 0 0 0 0 0 0 0 0 0 0 0 0 0 0 0 0 0 0 1
2 1 1 2 3 2 2 4 5 5 5 6 7 7 6 5 4 2 1 1 0 0 0 0 0 0 0 0 0 0 0 0 0 0 0 0 0 0 0 0 0 0 0
3 3 3 4 4 3 3 3 4 5 6 6 6 6 6 6 5 4 2 1 0 0 0 1 1 0 0 0 0 0 0 0 0 0 0 0 0 0 0 0 0 0 0
3 4 6 7 6 4 3 2 3 4 5 6 6 6 6 6 6 4 3 2 1 1 1 1 1 0 0 0 0 0 0 0 0 0 0 0 0 0 0 0 0 0 0
2 4 6 6 6 4 2 2 2 3 4 4 5 6 6 6 6 4 3 3 2 2 1 1 0 0 0 0 0 1 1 1 0 0 0 0 0 0 0 0 0 0 0
2 3 4 4 4 3 2 1 1 2 3 3 4 5 6 7 6 5 4 4 4 3 2 1 1 0 0 0 0 1 3 3 1 1 1 1 1 1 1 0 0 0 0
2 3 3 3 2 2 2 1 0 1 1 2 3 5 6 7 7 6 5 5 5 4 3 2 1 1 0 0 1 3 4 4 3 2 2 2 2 2 2 1 1 0 0
5 4 3 2 1 1 1 1 0 0 0 1 2 4 6 7 7 6 4 4 4 5 5 3 2 1 1 1 2 4 4 3 2 3 3 3 3 3 3 3 2 1 0
9 7 5 3 2 1 0 0 0 0 0 0 1 3 4 6 6 5 4 3 3 4 4 3 1 1 0 1 3 4 3 2 1 2 3 3 3 3 3 3 2 1 0
10 8 5 3 2 1 0 0 0 0 0 0 1 2 3 3 4 4 3 3 3 3 3 1 1 0 0 1 2 3 3 2 1 2 3 3 3 3 3 3 2 1 0
8 7 5 2 1 0 0 0 0 0 0 0 0 1 1 1 1 1 2 3 3 3 3 1 1 0 0 0 1 2 2 2 1 1 3 3 3 3 3 3 2 1 0
5 5 4 3 2 1 0 0 0 1 1 1 0 0 0 0 0 0 1 3 3 3 3 2 2 1 0 0 0 1 1 1 0 1 2 3 3 3 3 2 1 0 0
Wind_Speed
2 2 2 2 2 2 3 3 3 3 3 3 4 4 4 4 4 4 3 10 11 11 12 12 12 12 12 11 11 10 10 10 9 9 9 9 9 9 9 8 8 8 8
2 2 2 2 2 2 2 3 3 3 3 3 3 3 3 4 4 4 3 5 10 11 11 11 11 12 12 11 11 11 11 10 10 9 9 9 9 9 9 9 8 8 8
2 2 2 1 2 2 2 2 2 2 2 2 2 3 3 3 4 4 4 3 4 8 10 10 10 10 11 11 11 12 12 11 10 10 10 10 9 9 9 9 9 8 8
2 2 1 1 1 1 1 2 2 1 1 1 1 2 2 2 3 4 3 3 3 3 6 9 9 9 10 11 11 11 11 11 10 10 10 9 9 9 9 9 9 8 8
2 2 1 1 1 1 1 2 2 2 2 1 1 1 1 1 2 3 3 3 3 3 3 6 8 9 9 9 9 10 10 10 10 10 10 10 10 9 9 9 9 9 8
1 1 1 1 1 1 1 1 1 1 1 1 1 0 0 0 1 1 2 3 2 3 3 3 3 5 9 9 8 8 8 9 9 9 9 9 9 9 8 8 8 8 8
1 1 1 1 1 1 1 1 1 1 1 1 2 1 2 1 0 1 1 2 2 3 3 3 3 2 3 6 7 8 9 9 9 10 10 9 9 9 9 8 8 8 8
1 1 1 1 1 1 1 1 1 1 1 1 2 1 1 2 2 1 1 2 2 2 3 3 3 3 2 2 4 7 8 9 9 9 9 10 9 9 9 9 8 8 8
1 0 1 1 1 2 1 1 1 2 1 1 2 2 2 2 1 2 1 1 1 1 2 2 3 3 4 3 3 5 7 8 9 9 9 9 9 9 9 9 9 9 8
1 1 1 1 1 1 1 1 1 1 2 1 1 1 2 2 2 1 2 1 0 1 2 2 3 4 4 3 3 5 6 6 7 8 9 9 10 9 9 9 9 9 9
2 1 1 1 1 1 1 0 1 1 1 1 1 1 1 0 1 2 1 1 1 1 2 2 2 2 3 3 3 5 7 7 7 7 7 8 9 10 10 10 9 9 9
2 2 2 1 1 0 1 1 1 1 1 1 1 1 1 1 2 2 2 1 1 2 1 1 1 2 2 2 4 7 8 8 7 7 7 7 8 9 9 9 9 9 9
1 1 1 1 1 0 0 1 1 1 1 1 1 1 1 1 2 2 2 1 1 2 1 1 2 2 2 2 3 6 7 7 7 7 7 7 7 8 8 9 9 9 9
0 1 1 1 1 1 1 0 0 1 0 1 1 1 1 1 1 2 2 2 1 1 1 2 1 2 2 2 4 5 4 6 7 7 7 7 7 7 7 8 8 8 8
0 1 1 1 2 2 2 1 0 1 0 1 1 0 0 1 0 1 1 2 2 2 2 3 2 2 2 2 3 3 3 5 7 7 7 7 7 7 7 7 7 7 7
1 1 1 1 1 2 2 1 1 1 1 0 0 0 0 0 0 0 1 1 1 2 2 2 2 2 2 2 3 3 3 5 7 7 8 8 7 7 7 7 7 7 7
1 1 0 1 1 1 1 1 1 1 1 1 1 1 1 0 0 0 0 1 1 1 2 2 2 1 1 2 2 2 2 3 3 6 8 8 8 8 7 7 8 8 7
1 0 0 1 1 1 1 1 1 1 1 1 1 0 1 1 1 1 0 0 1 1 2 2 2 1 2 2 2 2 2 2 3 5 6 8 9 8 8 8 8 8 8
1 1 1 1 1 1 1 1 0 1 1 1 1 1 1 0 1 1 1 1 1 1 0 1 2 2 1 2 1 2 2 2 3 3 4 6 7 7 8 8 8 8 8
1 1 1 1 1 1 2 2 1 1 1 1 1 1 1 1 1 1 1 1 1 0 0 1 1 1 1 2 1 1 2 2 3 2 3 3 5 6 6 7 7 8 8
1 1 1 2 2 1 1 1 1 1 1 1 1 1 1 1 1 1 1 1 1 1 1 1 1 1 2 1 1 2 2 2 3 2 1 2 2 2 3 5 6 7 7
1 1 1 1 2 2 3 2 1 1 1 1 1 1 1 1 2 2 2 1 2 3 3 2 2 2 3 2 2 2 1 1 3 2 1 3 2 3 3 3 5 6 7
0 0 0 1 1 3 2 2 3 1 1 1 1 1 1 2 1 1 2 2 1 1 2 4 3 4 4 3 2 2 2 2 4 3 2 3 2 3 4 4 7 7 7
1 1 1 1 1 2 2 2 2 1 1 1 1 1 1 2 1 1 1 1 2 2 2 2 3 4 4 3 3 3 3 2 2 2 2 3 3 3 4 4 6 7 8
1 1 1 1 1 3 3 2 2 1 1 2 2 2 1 2 3 1 1 0 2 3 3 2 3 3 3 3 1 1 0 0 1 2 1 1 2 2 2 3 5 7 7
1 1 1 1 0 1 3 3 3 1 2 2 3 3 2 2 3 2 2 1 1 3 2 3 3 3 2 2 1 1 2 1 1 2 2 1 1 1 2 2 2 2 3
Wind_Direction
192 196 202 207 215 218 215 207 202 204 208 212 211 208 212 210 211 205 211 210 210 210 209 209 207 204 201 199 202 204 204 203 199 198 199 200 200 200 198 196 198 202 203
174 177 191 206 220 216 212 202 199 197 202 200 213 213 213 211 210 201 208 215 214 209 208 208 204 202 200 202 206 208 208 206 203 203 205 203 202 203 204 204 205 204 202
176 172 186 209 229 219 201 185 187 179 187 199 214 223 217 211 200 193 200 206 207 210 207 206 205 205 206 209 212 212 210 209 207 206 205 203 204 207 208 207 208 209 206
177 158 180 214 223 195 183 177 164 158 173 190 214 232 215 206 199 192 198 196 192 201 202 201 202 204 212 217 219 216 211 207 204 204 205 206 209 210 209 209 211 212 211
166 158 181 203 183 161 177 182 149 151 166 193 216 226 207 196 195 192 189 189 184 184 193 200 202 206 214 219 219 217 214 208 202 202 204 208 210 209 208 209 210 212 214
161 146 164 191 156 140 146 145 148 157 170 183 196 278 282 249 168 183 196 187 185 188 191 199 202 212 212 220 220 217 211 208 200 201 205 206 206 206 205 205 207 212 214
170 139 143 127 131 149 175 158 144 164 161 115 90 22 348 357 358 229 212 182 185 189 185 191 195 204 212 216 217 215 213 207 205 207 205 202 205 206 206 207 211 214 217
161 138 141 148 148 140 126 143 140 137 173 136 127 113 10 344 336 311 203 177 186 186 189 198 195 201 211 217 213 208 210 210 212 212 210 207 208 208 207 209 212 215 219
150 130 143 147 156 158 184 208 170 155 174 197 151 149 157 217 284 327 313 183 175 184 210 202 197 208 206 205 212 210 209 211 216 217 215 210 210 210 208 212 216 218 221
54 90 118 125 150 151 174 208 166 167 154 200 234 203 175 162 161 272 320 320 123 188 218 217 209 206 201 198 201 200 203 206 216 220 219 213 211 210 210 215 220 220 222
19 46 75 82 93 127 152 184 154 155 155 174 196 197 164 91 131 150 250 296 322 265 225 220 206 201 201 199 202 201 202 208 217 219 220 218 215 213 213 216 220 221 224
8 13 38 42 46 115 170 196 175 177 189 167 154 152 163 166 180 161 190 237 261 273 260 235 209 208 209 204 212 204 206 210 217 218 217 216 218 219 218 219 221 222 226
358 347 17 22 13 338 248 210 179 201 195 177 179 202 200 194 176 161 161 202 245 275 287 268 235 220 218 209 217 212 212 211 212 216 216 218 222 225 223 221 223 224 226
279 336 18 10 359 0 358 352 171 245 209 202 188 186 213 251 189 169 170 165 199 283 275 257 256 229 230 217 226 213 222 218 214 215 217 218 221 224 225 222 222 222 222
324 15 33 23 3 360 354 359 355 267 258 234 234 209 216 257 191 179 166 171 171 213 255 247 245 250 247 232 231 222 229 228 220 217 217 218 220 220 220 221 216 218 221
325 16 16 22 12 6 5 8 359 1 48 324 186 96 349 288 342 343 184 181 174 192 237 250 250 251 245 249 239 230 231 230 229 226 219 218 221 222 219 218 214 217 219
332 13 24 19 2 1 4 16 4 20 32 349 345 48 327 304 338 309 203 174 190 185 225 270 285 288 256 251 259 250 243 230 232 229 223 219 220 223 224 224 221 222 222
324 326 32 36 7 7 4 14 2 2 342 314 303 4 317 336 354 308 292 230 215 209 195 251 288 296 276 250 241 238 254 245 236 230 223 221 221 224 226 229 228 227 228
14 24 36 33 349 343 343 333 343 322 313 292 276 252 274 329 330 313 301 266 251 237 175 199 271 285 291 278 271 266 259 261 253 238 229 226 221 224 227 229 228 232 233
39 25 24 21 7 354 350 344 349 335 316 300 283 272 273 249 237 241 245 257 231 196 174 191 257 284 288 287 264 269 278 278 262 257 250 239 232 231 232 235 234 234 234
46 44 39 9 349 345 343 358 349 348 331 320 308 293 287 3 25 297 270 229 192 191 204 220 240 272 281 287 261 258 257 270 272 253 258 254 239 236 238 242 241 239 235
42 54 43 359 345 334 354 15 30 355 357 350 321 304 307 329 338 343 347 301 213 202 216 223 240 243 257 252 252 248 249 251 268 258 218 258 225 235 240 232 236 237 239
106 20 299 303 304 315 349 30 42 40 18 357 321 302 314 341 335 313 340 359 343 297 215 206 222 242 245 243 236 246 239 233 240 239 203 248 236 237 238 240 237 235 238
225 261 294 287 296 331 13 33 28 16 3 314 278 255 258 293 318 334 360 5 336 313 279 226 227 243 244 239 221 222 221 240 269 258 195 236 247 241 244 240 238 236 238
250 257 262 290 340 326 347 1 19 0 345 322 309 304 268 270 298 339 85 353 327 321 326 328 305 293 290 279 235 126 89 108 287 284 224 203 252 258 249 244 245 238 235
238 253 287 285 254 310 339 353 1 340 332 319 321 320 312 298 288 246 186 191 262 283 308 338 350 344 326 312 314 195 195 197 235 275 272 214 247 254 285 267 252 245 238